N2PUI Weather Reports


Display with metric or nautical units.
time (UTC)temp
F
wind
direction
speed
MPH
gust
MPH
rain 1hr
in
rain 24hr
in
rain mn
in
humidity
%
barometer
mb
20260504060242 48 191 0.0 1.0 0.00 0.00 0.00 54 1011.1
20260504050710 48 265 6.0 8.0 0.00 0.00 0.00 55 1011.4
20260504050206 48 199 2.0 2.0 0.00 0.00 0.00 55 1011.3
20260504045703 48 187 0.0 0.0 0.00 0.00 0.00 57 1011.4
20260504045158 48 194 1.0 2.0 0.00 0.00 0.00 57 1011.3
20260504044656 48 172 1.0 1.0 0.00 0.00 0.00 56 1011.3
20260504044153 49 188 0.0 1.0 0.00 0.00 0.00 56 1011.0
20260504043650 50 187 0.0 1.0 0.00 0.00 0.00 54 1011.1
20260504043147 50 183 0.0 1.0 0.00 0.00 0.00 53 1011.0
20260504042644 50 193 1.0 1.0 0.00 0.00 0.00 53 1011.2
20260504042141 51 181 0.0 0.0 0.00 0.00 0.00 53 1011.0
20260504041637 51 181 0.0 0.0 0.00 0.00 0.00 53 1011.3
20260504041133 51 182 0.0 0.0 0.00 0.00 0.00 52 1011.2
20260504040630 51 272 2.0 3.0 0.00 0.00 0.00 51 1011.2
20260504040127 51 237 2.0 2.0 0.00 0.00 0.00 50 1011.4
20260504035624 51 167 0.0 0.0 0.00 0.00 0.00 52 1011.2
20260504035120 51 191 1.0 2.0 0.00 0.00 0.00 52 1011.2
20260504034619 52 196 0.0 0.0 0.00 0.00 0.00 52 1011.1
20260504034115 52 209 1.0 1.0 0.00 0.00 0.00 50 1011.2
20260504033613 53 194 1.0 1.0 0.00 0.00 0.00 49 1011.0
20260504033110 53 202 0.0 1.0 0.00 0.00 0.00 48 1011.0
20260504032607 53 211 1.0 1.0 0.00 0.00 0.00 47 1011.3
20260504032104 53 290 2.0 2.0 0.00 0.00 0.00 47 1011.3
20260504031601 53 206 2.0 3.0 0.00 0.00 0.00 47 1011.3
20260504031056 53 240 2.0 2.0 0.00 0.00 0.00 47 1011.4
20260504030554 53 246 3.0 3.0 0.00 0.00 0.00 47 1011.2
20260504030050 54 213 1.0 1.0 0.00 0.00 0.00 46 1011.4
20260504025548 54 254 7.0 8.0 0.00 0.00 0.00 45 1011.5
20260504025044 53 316 4.0 6.0 0.00 0.00 0.00 47 1011.4
20260504024542 53 272 5.0 7.0 0.00 0.00 0.00 47 1011.6
20260504024038 52 277 3.0 5.0 0.00 0.00 0.00 50 1011.7
20260504023535 52 273 2.0 2.0 0.00 0.00 0.00 51 1011.7
20260504023031 52 314 5.0 7.0 0.00 0.00 0.00 50 1011.7
20260504022526 52 236 3.0 3.0 0.00 0.00 0.00 50 1011.5
20260504022023 52 229 2.0 2.0 0.00 0.00 0.00 50 1011.7
20260504021521 52 265 8.0 9.0 0.00 0.00 0.00 50 1011.8
20260504021018 53 291 5.0 6.0 0.00 0.00 0.00 50 1011.8
20260504020514 53 351 7.0 8.0 0.00 0.00 0.00 50 1012.0
20260504020011 53 298 3.0 5.0 0.00 0.00 0.00 50 1011.9
20260504015507 53 307 3.0 5.0 0.00 0.00 0.00 49 1011.7
20260504015003 53 320 4.0 6.0 0.00 0.00 0.00 49 1011.7
20260504014459 52 233 2.0 2.0 0.00 0.00 0.00 50 1011.7
20260504013956 53 255 2.0 2.0 0.00 0.00 0.00 50 1011.8
20260504013455 53 308 6.0 7.0 0.00 0.00 0.00 49 1011.6
20260504012950 53 329 7.0 8.0 0.00 0.00 0.00 49 1011.7
20260504012449 52 293 8.0 10.0 0.00 0.00 0.00 49 1011.5
20260504011947 52 322 10.0 13.0 0.00 0.00 0.00 49 1011.9
20260504011442 52 335 6.0 7.0 0.00 0.00 0.00 51 1011.7
20260504010939 52 324 4.0 5.0 0.00 0.00 0.00 51 1011.5
20260504010434 52 230 1.0 1.0 0.00 0.00 0.00 52 1011.6
20260504005931 52 275 3.0 3.0 0.00 0.00 0.00 51 1011.4
20260504005428 53 196 1.0 1.0 0.00 0.00 0.00 50 1011.4
20260504004925 53 278 3.0 3.0 0.00 0.00 0.00 50 1011.6
20260504004423 53 3 4.0 6.0 0.00 0.00 0.00 49 1011.3
20260504003920 53 310 3.0 3.0 0.00 0.00 0.00 48 1011.4
20260504003416 53 306 8.0 10.0 0.00 0.00 0.00 47 1011.2
20260504002913 53 312 7.0 10.0 0.00 0.00 0.00 47 1011.3
20260504002410 53 234 4.0 6.0 0.00 0.00 0.00 47 1011.2
20260504001907 53 304 5.0 6.0 0.00 0.00 0.00 46 1011.2
20260504001405 53 262 11.0 13.0 0.00 0.00 0.00 46 1011.0
20260504000901 53 219 2.0 3.0 0.00 0.00 0.00 47 1011.1
20260504000358 52 295 3.0 3.0 0.00 0.00 0.00 51 1011.0
20260503235855 52 198 0.0 1.0 0.00 0.00 0.00 51 1010.9
20260503235353 52 143 1.0 2.0 0.00 0.00 0.00 51 1010.7
20260503234850 52 135 1.0 1.0 0.00 0.00 0.00 49 1010.6
20260503234348 52 153 0.0 0.0 0.00 0.00 0.00 49 1010.7
20260503233846 53 137 1.0 1.0 0.00 0.00 0.00 49 1010.6
20260503233342 54 195 0.0 1.0 0.00 0.00 0.00 48 1010.4
20260503232838 55 192 0.0 0.0 0.00 0.00 0.00 43 1010.4
20260503232335 56 260 4.0 5.0 0.00 0.00 0.00 41 1010.4
20260503231834 56 258 3.0 3.0 0.00 0.00 0.00 41 1010.3
20260503231330 56 245 2.0 2.0 0.00 0.00 0.00 42 1010.6
20260503230826 55 212 1.0 1.0 0.00 0.00 0.00 42 1010.5
20260503230323 55 247 3.0 3.0 0.00 0.00 0.00 42 1010.3
20260503225821 55 254 3.0 3.0 0.00 0.00 0.00 44 1010.4
20260503225317 55 201 1.0 1.0 0.00 0.00 0.00 44 1010.5
20260503224813 55 242 2.0 2.0 0.00 0.00 0.00 43 1010.5
20260503224311 55 287 5.0 7.0 0.00 0.00 0.00 43 1010.4
20260503223808 55 149 1.0 1.0 0.00 0.00 0.00 42 1010.7
20260503223306 56 312 4.0 6.0 0.00 0.00 0.00 42 1010.4
20260503222801 55 261 5.0 6.0 0.00 0.00 0.00 41 1010.4
20260503222300 56 313 7.0 9.0 0.00 0.00 0.00 41 1010.6
20260503221757 56 292 8.0 9.0 0.00 0.00 0.00 41 1010.6
20260503221255 57 286 7.0 7.0 0.00 0.00 0.00 40 1010.8
20260503220751 56 265 3.0 3.0 0.00 0.00 0.00 41 1010.7
20260503220249 56 317 3.0 3.0 0.00 0.00 0.00 41 1010.7
20260503215745 56 320 8.0 10.0 0.00 0.00 0.00 41 1010.8
20260503215242 56 275 7.0 9.0 0.00 0.00 0.00 42 1011.1
20260503214740 55 243 5.0 6.0 0.00 0.00 0.00 42 1010.9
20260503214237 55 276 7.0 9.0 0.00 0.00 0.00 43 1010.8
20260503213735 55 273 8.0 10.0 0.00 0.00 0.00 43 1010.8
20260503213232 54 283 7.0 9.0 0.00 0.00 0.00 43 1010.9
20260503212729 55 248 4.0 6.0 0.00 0.00 0.00 44 1010.8
20260503212227 55 324 5.0 5.0 0.00 0.00 0.00 44 1010.7
20260503211724 55 277 3.0 5.0 0.00 0.00 0.00 44 1010.8
20260503211220 54 238 5.0 7.0 0.00 0.00 0.00 45 1010.9
20260503210715 53 336 4.0 5.0 0.00 0.00 0.00 45 1010.9
20260503210213 53 331 9.0 9.0 0.00 0.00 0.00 45 1011.0
20260503205708 53 304 4.0 5.0 0.00 0.00 0.00 46 1010.9
20260503205205 53 282 3.0 3.0 0.00 0.00 0.00 45 1011.1
20260503204701 53 292 8.0 14.0 0.00 0.00 0.00 43 1010.7
20260503204159 53 259 6.0 7.0 0.00 0.00 0.00 43 1010.7
20260503203656 53 304 6.0 9.0 0.00 0.00 0.00 42 1010.7
20260503203154 55 256 7.0 9.0 0.00 0.00 0.00 41 1010.9
20260503202650 54 258 5.0 8.0 0.00 0.00 0.00 41 1010.7
20260503202148 55 258 3.0 6.0 0.00 0.00 0.00 40 1010.8
20260503201646 54 250 4.0 7.0 0.00 0.00 0.00 41 1010.8
20260503201143 55 334 4.0 5.0 0.00 0.00 0.00 40 1011.0
20260503200639 55 277 6.0 8.0 0.00 0.00 0.00 39 1010.9
20260503200136 54 305 5.0 7.0 0.00 0.00 0.00 40 1010.9
20260503195633 54 227 1.0 2.0 0.00 0.00 0.00 41 1010.9
20260503195130 53 291 7.0 8.0 0.00 0.00 0.00 40 1010.8
20260503194627 53 212 5.0 6.0 0.00 0.00 0.00 40 1011.3
20260503194122 53 268 4.0 5.0 0.00 0.00 0.00 40 1011.0
20260503193620 53 317 6.0 7.0 0.00 0.00 0.00 40 1011.3
20260503193115 54 216 5.0 7.0 0.00 0.00 0.00 40 1011.2
20260503192611 54 312 6.0 7.0 0.00 0.00 0.00 40 1011.4
20260503192106 53 18 4.0 6.0 0.00 0.00 0.00 40 1011.4
20260503191558 53 330 4.0 5.0 0.00 0.00 0.00 40 1011.5
20260503191054 55 301 15.0 18.0 0.00 0.00 0.00 38 1011.4
20260503190551 53 254 9.0 10.0 0.00 0.00 0.00 38 1011.4
20260503190048 53 285 6.0 8.0 0.00 0.00 0.00 39 1011.6
20260503185539 53 341 6.0 7.0 0.00 0.00 0.00 39 1011.8
20260503185039 53 269 8.0 11.0 0.00 0.00 0.00 39 1011.5
20260503184535 53 232 3.0 3.0 0.00 0.00 0.00 39 1011.3
20260503184032 54 31 7.0 9.0 0.00 0.00 0.00 38 1011.5
20260503183528 53 290 10.0 11.0 0.00 0.00 0.00 38 1011.7
20260503183026 54 303 6.0 9.0 0.00 0.00 0.00 37 1011.8
20260503182524 53 175 2.0 3.0 0.00 0.00 0.00 39 1011.8
20260503182022 52 305 15.0 21.0 0.00 0.00 0.00 38 1012.0
20260503181518 52 309 8.0 10.0 0.00 0.00 0.00 38 1011.8
20260503181015 54 337 6.0 10.0 0.00 0.00 0.00 40 1012.1
20260503180512 53 125 3.0 6.0 0.00 0.00 0.00 40 1012.1
20260503180009 53 336 5.0 8.0 0.00 0.00 0.00 39 1011.9
20260503175507 53 199 2.0 2.0 0.00 0.00 0.00 40 1012.2
20260503175003 53 235 6.0 9.0 0.00 0.00 0.00 40 1012.1
20260503174501 52 207 3.0 5.0 0.00 0.00 0.00 39 1012.4
20260503173956 53 290 9.0 11.0 0.00 0.00 0.00 39 1012.6
20260503173452 52 229 7.0 8.0 0.00 0.00 0.00 38 1012.4
20260503172949 51 300 6.0 8.0 0.00 0.00 0.00 39 1012.7
20260503172446 51 280 9.0 15.0 0.00 0.00 0.00 40 1012.8
20260503171943 50 318 9.0 13.0 0.00 0.00 0.00 40 1012.6
20260503171439 50 280 12.0 20.0 0.00 0.00 0.00 41 1012.4
20260503170937 50 292 5.0 9.0 0.00 0.00 0.00 40 1012.7
20260503170433 50 269 7.0 9.0 0.00 0.00 0.00 40 1012.9
20260503150826 47 187 2.0 3.0 0.00 0.00 0.00 43 1013.6
20260503150321 47 271 4.0 5.0 0.00 0.00 0.00 44 1013.7
20260503140246 46 274 9.0 14.0 0.00 0.00 0.00 44 1013.8
20260503131215 42 191 2.0 3.0 0.00 0.00 0.00 54 1013.9
20260503130713 41 260 9.0 10.0 0.00 0.00 0.00 55 1013.9
20260503130210 42 225 5.0 7.0 0.00 0.00 0.00 56 1014.1
20260503120136 40 175 2.0 2.0 0.00 0.00 0.00 69 1014.2
20260503110604 38 316 3.0 3.0 0.00 0.00 0.00 75 1013.7
20260503090450 38 321 3.0 5.0 0.00 0.00 0.00 74 1012.9
20260503081417 38 189 0.0 0.0 0.00 0.00 0.00 74 1013.0
20260503080914 38 294 3.0 3.0 0.00 0.00 0.00 74 1013.1
20260503080410 38 161 0.0 0.0 0.00 0.00 0.00 74 1013.3
20260503072847 38 311 3.0 3.0 0.00 0.00 0.00 74 1013.3
20260503072344 38 268 2.0 2.0 0.00 0.00 0.00 74 1012.9
20260503071840 38 191 0.0 0.0 0.00 0.00 0.00 74 1013.1
20260503071337 38 214 1.0 2.0 0.00 0.00 0.00 74 1013.1
20260503070833 38 301 4.0 5.0 0.00 0.00 0.00 74 1013.0
20260503070332 38 197 1.0 1.0 0.00 0.00 0.00 74 1012.8